This is the latest recevied weather packets stored in our database for station/object KI5NXU. If no packets are shown the sender has not sent any weather packets the latest 10 day(s).
| Time | Temp. | Humidity | Pressure | Rain* | Wind** | Luminosity | Snow |
|---|---|---|---|---|---|---|---|
| 1788189420 | 30° C | 58% | 1016.9 hPa | 0 mm | - | 511 W/m² | - |
| 1788189114 | 30.56° C | 57% | 1017 hPa | 0 mm | - | 506 W/m² | - |
| 1788188810 | 31.11° C | 57% | 1017 hPa | 0 mm | - | 475 W/m² | - |
| 1788188505 | 30.56° C | 57% | 1017.1 hPa | 0 mm | - | 465 W/m² | - |
| 1788188204 | 30.56° C | 57% | 1017.1 hPa | 0 mm | - | 409 W/m² | - |
| 1788187901 | 30.56° C | 57% | 1016.9 hPa | 0 mm | - | 373 W/m² | - |
| 1788187596 | 30.56° C | 58% | 1017.1 hPa | 0 mm | - | 351 W/m² | - |
| 1788187292 | 30.56° C | 58% | 1017 hPa | 0 mm | - | 325 W/m² | - |
| 1788186991 | 30° C | 59% | 1017 hPa | 0 mm | - | 300 W/m² | - |
| 1788186687 | 30° C | 60% | 1016.9 hPa | 0 mm | - | 102 W/m² | - |
| 1788186383 | 30° C | 60% | 1017 hPa | 0 mm | - | 263 W/m² | - |
| 1788186078 | 30° C | 61% | 1017 hPa | 0 mm | - | 59 W/m² | - |
| 1788185777 | 29.44° C | 62% | 1016.7 hPa | 0 mm | - | 231 W/m² | - |
| 1788185473 | 29.44° C | 62% | 1016.8 hPa | 0 mm | - | 219 W/m² | - |
| 1788185172 | 29.44° C | 62% | 1016.7 hPa | 0 mm | - | 206 W/m² | - |
| 1788184867 | 28.89° C | 63% | 1016.9 hPa | 0 mm | - | 175 W/m² | - |
| 1788184564 | 28.89° C | 64% | 1016.8 hPa | 0 mm | - | 167 W/m² | - |
| 1788184261 | 28.33° C | 65% | 1016.7 hPa | 0 mm | - | 148 W/m² | - |
| 1788183957 | 28.89° C | 64% | 1016.9 hPa | 0 mm | - | 148 W/m² | - |
| 1788183657 | 28.33° C | 65% | 1016.6 hPa | 0 mm | - | 135 W/m² | - |
| 1788183356 | 28.33° C | 66% | 1016.6 hPa | 0 mm | - | 124 W/m² | - |
| 1788183051 | 27.78° C | 67% | 1016.3 hPa | 0 mm | - | 79 W/m² | - |
| 1788182748 | 27.78° C | 68% | 1016.3 hPa | 0 mm | - | 69 W/m² | - |
| 1788182440 | 27.22° C | 68% | 1016.2 hPa | 0 mm | - | 62 W/m² | - |
| 1788182135 | 26.67° C | 70% | 1016.2 hPa | 0 mm | - | 57 W/m² | - |
* Rain latest hour (hover to see other rain measurements)
** Current wind speed in m/s (hover to see current wind gust speed)